Regional Weather Roundup
Issued by NWS

Home | Current Version | Previous Version | Text Only | Print | Product List | Glossary Off
Versions: 1 2 3 4 5 6 7 8 9 10 11 12 13 14 15 16 17 18 19 20 21 22 23 24 25 26 27 28 29 30 31 32 33 34 35 36 37 38 39 40 41 42 43 44 45 46 47 48 49 50

000
ASUS43 KIND 251109
RWRIN

WEATHER ROUNDUP FOR INDIANA
NATIONAL WEATHER SERVICE INDIANAPOLIS IN
700 AM EDT THU AUG 25 2016

NOTE: "FAIR" INDICATES FEW OR NO CLOUDS BELOW 12,000 FEET WITH NO
SIGNIFICANT WEATHER AND/OR OBSTRUCTIONS TO VISIBILITY.

* - STATION DOES NOT REPORT WEATHER SUCH AS PRECIPITATION OR FOG.

+ - STATION NOT QUALITY CONTROLLED BY THE NATIONAL WEATHER SERVICE.
    USE DATA WITH CAUTION...ESPECIALLY DEWPOINT AND RELATIVE
    HUMIDITY OBSERVATIONS.

INZ001>003-010>013-019-020-251200-
NORTHWEST INDIANA

CITY           SKY/WX    TMP DP  RH WIND       PRES   REMARKS
GARY /AIRPORT/ LGT RAIN  72  70  94 S3        29.97F
KNOX *+        CLOUDY    68  55  64 CALM      30.00F
LA PORTE +     LGT RAIN N/A N/A N/A CALM      30.00S
MICHIGAN CITY+ CLOUDY    70  70 100 MISG      29.99S
MONTICELLO +   CLOUDY    70  66  88 SE5       29.99S
RENSSELAER +   CLOUDY    68  68 100 CALM      29.98F FOG
VALPARAISO     CLOUDY    69  67  93 CALM      29.99F

$$

LMZ046-743>745-251200-
SOUTHERN LAKE MICHIGAN

STATION/POSITION TIME  TEMP    WIND        PRES    WAVE
                       AIR SEA DIR/SP/G            HT
                 (UTC) (F)     (DEG/KT/KT) (MB)    (FT)
BURNS HARBOR     1013   72     210/ 11/ 19 1015.6F
MICHIGAN CITY    1000   72     180/ 14/ 16   N/A
5NW MICH CITY    1000   73 74  230/ 16/ 19   N/A     2

$$

INZ004-005-014>016-021>024-251200-
NORTH CENTRAL INDIANA

CITY           SKY/WX    TMP DP  RH WIND       PRES   REMARKS
ELKHART        CLOUDY    72  68  88 SW5       30.01
GOSHEN         CLOUDY    71  67  87 S8        30.03R
LOGANSPORT +   CLOUDY    68  68 100 CALM      30.02F
PERU/GRISSOM   MOCLDY    70  70 100 S7        30.01F
ROCHESTER +    RAIN      73  72  94 CALM      30.02F
SOUTH BEND     LGT RAIN  70  70 100 SW8       30.01R
WARSAW +       CLOUDY    72  72 100 CALM      30.03S

$$

INZ006>009-017-018-025>027-251200-
NORTHEAST INDIANA

CITY           SKY/WX    TMP DP  RH WIND       PRES   REMARKS
ANGOLA *+      PTCLDY    72  64  78 SW3       30.03R
AUBURN +       CLOUDY    70  66  88 CALM      30.04R
FORT WAYNE     TSTM      72  70  93 W7        30.03F
HUNTINGTON +   CLOUDY   N/A N/A N/A SW6       30.04F

$$

INZ028-029-035-036-043>045-051>053-251200-
WEST CENTRAL INDIANA

CITY           SKY/WX    TMP DP  RH WIND       PRES   REMARKS
CRAWFORDSVL +  CLOUDY    68  68 100 CALM      30.04S
GREENCASTLE +  MOCLDY    73  73 100 CALM      30.06S
LAFAYETTE      CLOUDY    69  69 100 S3        30.00S
TERRE HAUTE    MOCLDY    76  73  91 W3        30.04S

$$

INZ030>032-037>040-046>048-054>057-064-065-251200-
CENTRAL INDIANA

CITY           SKY/WX    TMP DP  RH WIND       PRES   REMARKS
COLUMBUS       MOCLDY    73  73 100 S6        30.06
INDIANAPOLIS   MOCLDY    76  74  93 SW8       30.04S
-EAGLE CREEK   PTCLDY    76  73  91 CALM      30.04R
MARION +         N/A     70  70  98 CALM      30.06R
MT COMFORT *+  MOCLDY    73  72  94 CALM      30.06R
SHELBYVILLE    PTCLDY    75  72  90 S6        30.06R
ZIONSVILLE +   MOCLDY    74  73  96 W5        30.06S

$$

INZ033-034-041-042-049-050-058-059-251200-
EAST CENTRAL INDIANA

CITY           SKY/WX    TMP DP  RH WIND       PRES   REMARKS
MUNCIE         TSTM      74  72  93 N10       30.07R FOG

$$

INZ060-061-067>069-081>083-085>088-251200-
SOUTHWEST INDIANA

CITY           SKY/WX    TMP DP  RH WIND       PRES   REMARKS
EVANSVILLE     CLEAR     76  73  91 SW7       30.08S
HUNTINGBURG *+ CLEAR     75  72  88 S8        30.09S
WASHINGTON +   CLEAR     76  76 100 MISG      30.05S

$$

INZ062-063-066-070>080-084-089>092-251200-
SOUTH CENTRAL AND SOUTHEAST INDIANA

CITY           SKY/WX    TMP DP  RH WIND       PRES   REMARKS
BLOOMINGTON    MOCLDY    76  73  91 SW7       30.06S
MADISON *+     CLEAR     73  72  94 S6        30.11R

$$





USA.gov is the U.S. government's official web portal to all federal, state and local government web resources and services.